Location: Ash Observatory
(39.7321°N, 75.2004°W)
Time: 03:44:28
(UTC-04:00)

ISS - Pass Details

Date: 01 April 2019
Orbit: 408 x 410 km, 51.6° (Epoch: 25 April)

Event Time Altitude Azimuth Distance (km) Brightness Sun altitude
Rises 20:22:20 0° 312° (NW) 2,337 1.3 -11.7°
Reaches altitude 10° 20:25:32 10° 346° (NNW) 1,474 -0.6 -12.2°
Maximum altitude 20:26:52 12° 10° (N) 1,362 -1.1 -12.5°
Drops below altitude 10° 20:28:13 10° 34° (NE) 1,473 -1.2 -12.7°
Enters shadow 20:29:13 - 48° (NE) 1,677 -1.0 -12.9°
